OV1-5 DEB

基本信息
目录编号:
27880
目录名称:
OV1-5 DEB
国际标识:
1966-025H
轨道中心:
EARTH
物体状态:
已陨落(2025-04-19)
发射日期:
1966-03-30 UTC
轨道信息
数据来源: 国际轨道数据
星历时间: 2025-04-14T15:47:04+0800
半长轴: 6755.048km
偏心率: 0.0019148
轨道倾角: 144.614°
近地点辐角: 194.068°
升交点赤经: 12.805°
平近点角: 165.952°
近地点: 363.978km
远地点: 389.848km
周期: 92.088分钟
每日圈数: 15.637242
详细信息
发射场:
AFWTR
轨道高度:
LEO
数据来源:
AOE Integration Group
参考系:
TEME
时间系统:
UTC
历元类型:
SGP4
2D轨道图
3D轨道图
轨道高度分析图
轨道倾角分析图
轨道综合分析图
查看轨道综合分析图